Orbital Elements at Epoch 2459200.5 (2020-Dec-17.0) TDB
Reference: JPL 13 (heliocentric ecliptic J2000)
Element | Value | Uncertainty (1-sigma) | Units |
e | .09125289733916288 | 6.3032e-08 | |
a | 3.104723424795459 | 3.4654e-08 | au |
q | 2.821408416846105 | 1.8326e-07 | au |
i | 10.51460948791769 | 5.6331e-06 | deg |
node | 310.9508672047932 | 2.9341e-05 | deg |
peri | 330.3596061120155 | 4.387e-05 | deg |
M | 122.6948957455159 | 3.4691e-05 | deg |
tp | 2458519.484808938089 (2019-Feb-04.98480894) | 0.00019082 | TDB |
period | 1998.171703008663 5.47 | 3.3455e-05 9.159e-08 | d yr |
n | .1801646972869975 | 3.0164e-09 | deg/d |
Q | 3.388038432744813 | 3.7817e-08 | au |
|
| | Orbit Determination Parameters
Additional Information
|